Location: Pabrico
(37.5827°N, 122.0063°W)
Time: 11:11:05
(UTC+00:00)

Cosmos 1939 Rocket - Pass Details

Date: 13 April 2024
Orbit: 515 x 558 km, 97.4° (Epoch: 24 May)

Event Time Altitude Azimuth Distance (km) Brightness Sun altitude
Rises 12:32:32 0° 17° (NNE) 2,639 6.9 -12.6°
Reaches altitude 10° 12:34:41 10° 22° (NNE) 1,748 6.0 -12.2°
Maximum altitude 12:38:21 53° 100° (E) 641 3.5 -11.6°
Drops below altitude 10° 12:42:02 10° 178° (S) 1,742 5.2 -10.9°
Sets 12:44:09 0° 183° (S) 2,630 6.1 -10.5°
